When you browse on this site, cookies collect data to enhance your experience and personalize the content and advertising you see.
Visit our Privacy Policy to learn more. By continuing to use the site, you agree to this use of cookies and data.
  • In Hungary
  • List of Countries
  • For 7 days
  • Water Temperature
  • Satellite Maps
  • Weather Map
  • News
  • Weather Widgets
  • user-avatar
    Login

    Hourly Weather Yudino

    Today, 21 May, Tuesday

    Time Temperature Precipitation Wind Pressure Humidity
    00:00 +16°C° 0 mm 2 mps 756 mmHg 79%
    01:00 +16°C° 0 mm 2 mps 755 mmHg 81%
    02:00 +15°C° 0 mm 1 mps 755 mmHg 86%
    03:00 +15°C° 0 mm 2 mps 755 mmHg 87%
    04:00 +15°C° 0 mm 2 mps 755 mmHg 87%
    05:00 +16°C° 0 mm 2 mps 755 mmHg 87%
    06:00 +17°C° 0 mm 2 mps 755 mmHg 82%
    07:00 +19°C° 0 mm 2 mps 755 mmHg 78%
    08:00 +21°C° 0 mm 3 mps 755 mmHg 73%
    09:00 +22°C° 0 mm 3 mps 754 mmHg 69%
    10:00 +24°C° 0 mm 3 mps 754 mmHg 66%
    11:00 +25°C° 0 mm 3 mps 754 mmHg 63%
    12:00 +25°C° 0 mm 2 mps 754 mmHg 63%
    13:00 +25°C° 0 mm 2 mps 754 mmHg 63%
    14:00 +25°C° 0 mm 1 mps 753 mmHg 63%
    15:00 +25°C° 0.1 mm 1 mps 753 mmHg 67%
    16:00 +24°C° 0.1 mm 1 mps 753 mmHg 71%
    17:00 +24°C° 0.1 mm 1 mps 753 mmHg 75%
    18:00 +23°C° 0 mm 1 mps 752 mmHg 78%
    19:00 +22°C° 0 mm 1 mps 752 mmHg 81%
    20:00 +21°C° 0 mm 1 mps 752 mmHg 83%
    21:00 +20°C° 0.4 mm 1 mps 752 mmHg 86%
    22:00 +19°C° 0.4 mm 1 mps 752 mmHg 88%
    23:00 +18°C° 0.4 mm 1 mps 752 mmHg 90%

    Tomorrow, 22 May, Wednesday

    Time Temperature Precipitation Wind Pressure Humidity
    00:00 +16°C° 0.2 mm 1 mps 752 mmHg 91%
    01:00 +16°C° 0.2 mm 2 mps 752 mmHg 92%
    02:00 +15°C° 0.2 mm 2 mps 752 mmHg 94%
    03:00 +15°C° 0 mm 2 mps 752 mmHg 94%
    04:00 +15°C° 0 mm 2 mps 752 mmHg 94%
    05:00 +15°C° 0 mm 2 mps 751 mmHg 94%
    06:00 +17°C° 0 mm 2 mps 751 mmHg 90%
    07:00 +18°C° 0 mm 2 mps 751 mmHg 86%
    08:00 +20°C° 0 mm 2 mps 751 mmHg 81%
    09:00 +21°C° 0.2 mm 2 mps 751 mmHg 74%
    10:00 +23°C° 0.2 mm 2 mps 751 mmHg 67%
    11:00 +25°C° 0.2 mm 2 mps 750 mmHg 60%
    12:00 +26°C° 0 mm 1 mps 750 mmHg 56%
    13:00 +27°C° 0 mm 1 mps 750 mmHg 52%
    14:00 +26°C° 0 mm 0 mps 750 mmHg 48%
    15:00 +27°C° 0 mm 1 mps 749 mmHg 49%
    16:00 +27°C° 0 mm 1 mps 749 mmHg 50%
    17:00 +27°C° 0 mm 1 mps 749 mmHg 52%
    18:00 +25°C° 0.2 mm 1 mps 749 mmHg 60%
    19:00 +23°C° 0.2 mm 1 mps 749 mmHg 68%
    20:00 +21°C° 0.2 mm 1 mps 749 mmHg 77%
    21:00 +20°C° 0.4 mm 1 mps 749 mmHg 80%
    22:00 +19°C° 0.4 mm 1 mps 749 mmHg 84%
    23:00 +16°C° 0.4 mm 0 mps 749 mmHg 87%

    Day after tomorrow, 23 May, Thursday

    Time Temperature Precipitation Wind Pressure Humidity
    00:00 +18°C° 0 mm 1 mps 749 mmHg 88%
    01:00 +16°C° 0 mm 1 mps 749 mmHg 89%
    02:00 +16°C° 0 mm 1 mps 749 mmHg 89%
    03:00 +16°C° 0.1 mm 1 mps 749 mmHg 90%
    04:00 +16°C° 0.1 mm 1 mps 749 mmHg 91%
    05:00 +16°C° 0.1 mm 1 mps 749 mmHg 92%
    06:00 +17°C° 0.1 mm 2 mps 749 mmHg 89%
    07:00 +18°C° 0.1 mm 2 mps 750 mmHg 87%
    08:00 +19°C° 0.1 mm 3 mps 750 mmHg 85%
    09:00 +18°C° 0.1 mm 3 mps 750 mmHg 85%
    10:00 +18°C° 0.1 mm 4 mps 750 mmHg 84%
    11:00 +17°C° 0.1 mm 4 mps 750 mmHg 84%
    12:00 +18°C° 0 mm 4 mps 750 mmHg 80%
    13:00 +19°C° 0 mm 4 mps 750 mmHg 75%
    14:00 +20°C° 0 mm 4 mps 751 mmHg 70%
    15:00 +21°C° 0 mm 4 mps 750 mmHg 68%
    16:00 +21°C° 0 mm 4 mps 750 mmHg 67%
    17:00 +21°C° 0 mm 4 mps 750 mmHg 65%
    18:00 +20°C° 0 mm 4 mps 751 mmHg 68%
    19:00 +18°C° 0 mm 3 mps 751 mmHg 71%
    20:00 +17°C° 0 mm 3 mps 751 mmHg 75%
    21:00 +16°C° 0 mm 3 mps 751 mmHg 72%
    22:00 +14°C° 0 mm 3 mps 752 mmHg 69%
    23:00 +13°C° 0 mm 3 mps 752 mmHg 66%

    24 May, Friday

    Time Temperature Precipitation Wind Pressure Humidity
    00:00 +12°C° 0 mm 3 mps 752 mmHg 66%
    01:00 +12°C° 0 mm 3 mps 752 mmHg 66%
    02:00 +11°C° 0 mm 3 mps 752 mmHg 66%
    03:00 +11°C° 0 mm 3 mps 752 mmHg 69%
    04:00 +11°C° 0 mm 3 mps 752 mmHg 71%
    05:00 +11°C° 0 mm 3 mps 752 mmHg 73%
    06:00 +13°C° 0 mm 3 mps 752 mmHg 73%
    07:00 +14°C° 0 mm 3 mps 751 mmHg 73%
    08:00 +16°C° 0 mm 3 mps 751 mmHg 73%
    09:00 +18°C° 0.2 mm 3 mps 751 mmHg 74%
    10:00 +19°C° 0.2 mm 3 mps 751 mmHg 74%
    11:00 +20°C° 0.2 mm 3 mps 751 mmHg 75%
    12:00 +21°C° 0.7 mm 3 mps 750 mmHg 76%
    13:00 +21°C° 0.7 mm 3 mps 750 mmHg 77%
    14:00 +21°C° 0.7 mm 2 mps 750 mmHg 78%
    15:00 +21°C° 2.6 mm 2 mps 749 mmHg 79%
    16:00 +21°C° 2.6 mm 2 mps 749 mmHg 80%
    17:00 +22°C° 2.6 mm 1 mps 749 mmHg 82%
    18:00 +21°C° 1.2 mm 1 mps 749 mmHg 85%
    19:00 +20°C° 1.2 mm 1 mps 748 mmHg 88%
    20:00 +19°C° 1.2 mm 1 mps 748 mmHg 92%
    21:00 +18°C° 0.2 mm 1 mps 748 mmHg 93%
    22:00 +16°C° 0.2 mm 2 mps 748 mmHg 95%
    23:00 +15°C° 0.2 mm 2 mps 748 mmHg 97%

    25 May, Saturday

    Time Temperature Precipitation Wind Pressure Humidity
    00:00 +15°C° 0.4 mm 2 mps 748 mmHg 97%
    01:00 +14°C° 0.4 mm 2 mps 748 mmHg 98%
    02:00 +13°C° 0.4 mm 3 mps 748 mmHg 98%
    03:00 +13°C° 0.1 mm 2 mps 748 mmHg 97%
    04:00 +13°C° 0.1 mm 2 mps 748 mmHg 97%
    05:00 +12°C° 0.1 mm 2 mps 748 mmHg 96%
    06:00 +13°C° 0.1 mm 2 mps 748 mmHg 94%
    07:00 +13°C° 0.1 mm 2 mps 748 mmHg 93%
    08:00 +13°C° 0.1 mm 2 mps 748 mmHg 91%
    09:00 +14°C° 0 mm 2 mps 747 mmHg 86%
    10:00 +15°C° 0 mm 2 mps 747 mmHg 81%
    11:00 +16°C° 0 mm 1 mps 747 mmHg 76%
    12:00 +18°C° 0 mm 1 mps 747 mmHg 69%
    13:00 +19°C° 0 mm 1 mps 746 mmHg 61%
    14:00 +21°C° 0 mm 1 mps 746 mmHg 54%
    15:00 +21°C° 0 mm 1 mps 746 mmHg 55%
    16:00 +21°C° 0 mm 1 mps 745 mmHg 56%
    17:00 +20°C° 0 mm 2 mps 745 mmHg 57%
    18:00 +19°C° 0 mm 1 mps 745 mmHg 63%
    19:00 +16°C° 0 mm 1 mps 745 mmHg 69%
    20:00 +15°C° 0 mm 1 mps 745 mmHg 75%
    21:00 +14°C° 0 mm 1 mps 744 mmHg 78%
    22:00 +12°C° 0 mm 1 mps 744 mmHg 80%
    23:00 +11°C° 0 mm 1 mps 744 mmHg 83%

    26 May, Sunday

    Time Temperature Precipitation Wind Pressure Humidity
    00:00 +11°C° 0.2 mm 1 mps 744 mmHg 86%
    01:00 +10°C° 0.2 mm 2 mps 744 mmHg 90%
    02:00 +10°C° 0.2 mm 2 mps 744 mmHg 93%
    03:00 +10°C° 0.4 mm 2 mps 744 mmHg 94%
    04:00 +10°C° 0.4 mm 3 mps 744 mmHg 95%
    05:00 +10°C° 0.4 mm 3 mps 743 mmHg 96%
    06:00 +10°C° 0 mm 3 mps 743 mmHg 93%
    07:00 +10°C° 0 mm 3 mps 743 mmHg 91%
    08:00 +10°C° 0 mm 4 mps 743 mmHg 89%
    09:00 +12°C° 0 mm 3 mps 743 mmHg 81%
    10:00 +13°C° 0 mm 3 mps 742 mmHg 72%
    11:00 +14°C° 0 mm 3 mps 742 mmHg 64%
    12:00 +14°C° 0.3 mm 4 mps 742 mmHg 68%
    13:00 +14°C° 0.3 mm 4 mps 742 mmHg 71%
    14:00 +13°C° 0.3 mm 5 mps 741 mmHg 75%
    15:00 +14°C° 0.2 mm 5 mps 741 mmHg 75%
    16:00 +14°C° 0.2 mm 5 mps 741 mmHg 74%
    17:00 +14°C° 0.2 mm 5 mps 741 mmHg 74%
    18:00 +13°C° 0.1 mm 4 mps 741 mmHg 79%
    19:00 +12°C° 0.1 mm 3 mps 741 mmHg 84%
    20:00 +11°C° 0.1 mm 3 mps 740 mmHg 89%
    21:00 +10°C° 0 mm 3 mps 740 mmHg 92%
    22:00 +8°C° 0 mm 2 mps 741 mmHg 94%
    23:00 +7°C° 0 mm 2 mps 741 mmHg 96%
    Show more